www.pogodaiklimat.ru
ПОГОДА в Тетерборо
Время
(UTC), дата
09:51 06.12
10:51 06.12
11:51 06.12
12:51 06.12
13:51 06.12
14:51 06.12
15:51 06.12
16:51 06.12
17:51 06.12
18:51 06.12
19:51 06.12
20:51 06.12
21:51 06.12
22:51 06.12
23:51 06.12
00:51 06.12
01:51 06.12
02:51 06.12
03:51 06.12
04:51 07.12
05:51 07.12
06:51 07.12
07:51 07.12
08:51 07.12
09:51 07.12
10:51 07.12
11:51 07.12
12:51 07.12
13:51 07.12
14:51 07.12
15:51 07.12
16:51 07.12
17:51 07.12
18:51 07.12
19:51 07.12
20:51 07.12
21:51 07.12
22:51 07.12
23:51 07.12
00:51 07.12
01:51 07.12
02:51 07.12
03:51 07.12
04:51 08.12
05:51 08.12
06:51 08.12
07:51 08.12
08:51 08.12
Ветер
(напр.,м/с)
Видим. Явления Облачность Т
(С)
Тd
(С)
f
(%)
Тe
(С)
Тes
(С)
Комфортность P
(гПа)
Po
(гПа)
Тmin
(С)
Tmax
(С)
R
(мм)
R24
(мм)
S
(см)
Ю 1 16 км ясно +0.6 -5.6 63 -2 -2 1020.2 1020.0
Ю 1 16 км ясно +0.6 -5.0 66 -2 -2 1020.4 1020.0 -1.1 +2.2
Ю 2 16 км 2/0 2550 м
[средняя]
+1.7 -4.4 64 -2 -2 1020.0 1019.6
ЮЗ 5 16 км 8/0 2250 м
[средняя]
+3.3 -5.0 54 -2 -2 1020.2 1020.0
Ю 4 16 км 10/0 2700 м
[средняя]
+3.9 -3.3 59 -1 -1 1019.6 1019.3
Ю 6 16 км 8/0 2700 м
[средняя]
+5.6 -2.8 55 +1 +1 1018.2 1017.9
Ю 7 16 км 2/0 2850 м
[средняя]
+7.2 -3.3 47 +3 +3 1016.6 1016.2
Ю 6 16 км 8/0 3300 м
[средняя]
+7.8 -2.8 47 +4 +4 1015.2 1014.9 +0.6 +8.3
ЮЗ 6 16 км 10/0 2550 м
[средняя]
+8.3 -2.8 45 +5 +5 1014.5 1014.2
ЮЗ 6 16 км 10/0 3000 м
[средняя]
+9.4 -4.4 37 +6 +6 1013.4 1013.2
ЮЗ 6 16 км 10/0 2100 м
[средняя]
+10.6 -3.3 38 +8 +8 1013.5 1013.2
ЮЗ 6 16 км 10/8 1950 м
[средняя]
+10.6 -3.3 38 +8 +8 1013.2 1012.9
ЮЗ 4 16 км 10/10 1800 м +9.4 -4.4 37 +7 +7 1014.6 1014.2
З 4 16 км 10/10 1440 м +8.9 -2.2 46 +6 +6 1015.3 1014.9 +7.8 +11.7
СЗ 5
{11}
16 км 10/10 1410 м +8.9 -0.6 51 +6 +6 1017.0 1016.6
СЗ 6 16 км ясно +6.1 -3.3 51 +2 +2 1017.9 1017.6
СЗ 6
{10}
16 км 8/0 2100 м
[средняя]
+5.0 -4.4 51 0 0 1019.3 1018.9
СЗ 5
{8}
16 км ясно +3.3 -5.0 54 -2 -2 1020.2 1020.0
СЗ 4
{9}
16 км ясно +2.8 -5.6 54 -2 -2 1020.8 1020.6
СЗ 5 16 км ясно +2.2 -6.1 54 -3 -3 1021.4 1021.0 +2.2 +8.9
СЗ 7 16 км ясно +2.2 -5.6 56 -4 -4 1022.1 1021.7
СЗ 5 16 км ясно +1.7 -6.1 56 -4 -4 1023.1 1022.7
СЗ 4 16 км ясно +0.6 -6.1 61 -4 -4 1023.9 1023.7
СЗ 3 16 км ясно 0.0 -6.7 61 -5 -5 1024.6 1024.4
СЗ 4 16 км ясно 0.0 -7.8 56 -5 -5 1025.7 1025.4
З 3 16 км ясно 0.0 -7.8 56 -4 -4 1026.7 1026.4 0.0 +2.2
СЗ 1 16 км ясно 0.0 -7.2 58 -2 -2 1027.5 1027.1
СЗ 4 16 км ясно +1.1 -7.2 54 -4 -4 1028.0 1027.7
СЗ 7
{9}
16 км ясно +2.2 -8.3 46 -4 -3 1028.5 1028.1
С 5
{9}
16 км ясно +2.8 -8.3 44 -2 -1 1028.4 1028.1
СЗ 6 16 км ясно +2.8 -9.4 40 -3 -2 1028.0 1027.7
С 4 16 км ясно +3.3 -9.4 39 -1 +1 1028.0 1027.7 -0.6 +3.3
СЗ 7
{9}
16 км ясно +3.9 -9.4 37 -1 -1 1027.9 1027.7
СЗ 5 16 км ясно +3.9 -9.4 37 -1 0 1028.1 1027.7
СЗ 5 16 км ясно +2.8 -10.0 38 -2 -2 1028.6 1028.4
нст 3 16 км ясно +1.7 -9.4 43 -2 -2 1029.5 1029.1
СЗ 3 16 км ясно +1.7 -10.0 41 -2 -2 1030.6 1030.1
С 3 16 км ясно +0.6 -9.4 47 -3 -3 1031.1 1030.8 +0.6 +3.9
СЗ 3 16 км ясно 0.0 -8.9 51 -4 -4 1031.7 1031.5
С 3 16 км ясно -0.6 -9.4 51 -5 -5 1032.2 1031.8
СЗ 1 16 км ясно -1.1 -9.4 53 -4 -4 1032.3 1032.1
С 1 16 км ясно -1.7 -9.4 56 -4 -4 1032.9 1032.5
СЗ 2 16 км ясно -2.2 -9.4 58 -6 -6 1033.0 1032.8
0 16 км ясно -2.2 -9.4 58 -3 -3 1032.9 1032.5 -3.3 +1.1
0 16 км ясно -2.2 -9.4 58 -3 -3 1033.3 1032.8
0 16 км ясно -2.8 -8.9 63 -3 -3 1033.5 1033.2
0 16 км ясно -4.4 -7.8 77 -5 -5 1033.5 1033.2
СВ 1 16 км ясно -3.9 -8.9 68 -7 -7 1033.5 1033.2
Местоположение метеостанции Teterboro Airport: широта 40.8589 долгота -74.0567 высота над уровнем моря 2 м.
В архиве по умолчанию представлена погода в Тетерборо за последние 1-2 суток. Обновление информации о фактической погоде в базе происходит ежечасно! Архивные данные за месяц целиком и за предыдущие месяцы Вы можете получить, выбрав интересующий диапазон дат из раскрывающегося списка и нажав кнопку "Ввод!".
Внимание! Архив погоды МЕТАР в базе сайта по станциям, не включенным в климатический монитор, хранится не более 60 дней. Нет смысла пытаться выбрать более раннюю дату.
*Определитесь, кто Вы:
Внимание! Время в таблицах - всемирное. Для получения местного времени необходимо прибавить поправку, которая равна ч.
Смотрите также архив погоды в соседних городах и на ближайших метеорологических станциях:
Партнеры нашего сайта:      
Пояснения к столбцам:
  • Ветер - указаны скорость ветра в м/с - средняя за 10 мин, порывы в срок и между сроками (в фигурных скобках) и направление, откуда дует ветер: С - северный,
  • СВ - северо-восточный, В - восточный, ЮВ - юго-восточный, Ю - южный, ЮЗ - юго-западный, З - западный, СЗ - северо-западный.
  • Видимость - горизонтальная дальность видимости в метрах или километрах. При видимости от 1 до 10 км при отсутствии осадков обычно наблюдается дымка, при ухудшении видимости до 1 км и менее - туман. В сухую погоду видимость может ухудшаться дымом, пылью или мглою.
  • Явления - указаны атмосферные явления, наблюдавшиеся в срок или в последний час перед сроком; фигурными скобками обозначены явления, наблюдавшиеся между сроками (за 1-3 часа до срока); квадратными скобками обозначены град или гололедные отложения с указанием их диаметра в мм.
  • Облачность - указаны через наклонную черту общая и нижняя облачность в баллах и высота нижней границы облаков в метрах; квадратными скобками обозначены формы облаков: Ci - перистые, Cs - перисто-слоистые, Cc - перисто-кучевые, Ac - высококучевые, As - высокослоистые, Sc - слоисто-кучевые, Ns - слоисто-дождевые, Cu - кучевые, Cb - кучево-дождевые. Подробнее классификацию облаков см. в Атласе облаков (PDF).
  • T - Температура воздуха - температура, измеренная на высоте 2 м над землей.
  • Td - Температура точки росы - температура, при понижении до которой содержащийся в воздухе водяной пар достигнет насыщения.
  • f - Относительная влажность воздуха - влажноcть воздуха, измеренная на высоте 2 м над землей.
  • Te - Эффективная температура - температура, которую ощущает одетый по сезону человек в тени. Характеристика душности погоды. При расчете учитывается влияние влажности воздуха и скорости ветра на теплоощущения человека.
  • Tes - Эффективная температура на солнце - температура, которую ощущает человек, с поправкой на солнечный нагрев. Характеристика знойности погоды. Зависит от высоты солнца над горизонтом, облачности и скорости ветра. Ночью, в пасмурную погоду, а также при ветре 12 м/с и более поправка равна нулю.
  • P - Атмосферное давление - приведенное к уровню моря атмосферное давление.
  • Po - Атмосферное давление - измеренное на уровне метеостанции атмосферное давление.
  • Tmin - Минимальная температура - минимум температуры воздуха на высоте 2 м над землей.
  • Tmax - Максимальная температура - максимум температуры воздуха на высоте 2 м над землей.
  • R - Количество осадков - Количество выпавших осадков за период времени, мм. При наведении курсора мыши на число - период времени, за который выпало указанное количество осадков.
  • R24 - Количество осадков - Количество выпавших осадков за 24 часа, мм.
  • S - Снежный покров - Высота снежного покрова, см. При наведении курсора мыши на число - состояние снежного покрова и степень покрытия местности в баллах.